Kalamazoo, MI

11:48 AM EST on December 16, 2017 (GMT -0500)
Kalamazoo-Battle Creek International

Weather History for KAZO - December, 2013

Change the Weather History Date:

Wednesday, December 11, 2013

  Actual Average Record
Temperature  
Mean Temperature 17 °F 30 °F  
Max Temperature 21 °F 36 °F 58 °F (1971)
Min Temperature 13 °F 24 °F 2 °F (1977)
Degree Days  
Heating Degree Days 48 35  
Month to date heating degree days 400 365  
Since 1 July heating degree days 1757 1692  
Cooling Degree Days 0 0  
Month to date cooling degree days 0 0  
Year to date cooling degree days 725 675  
Moisture  
Dew Point 12 °F    
Average Humidity 73    
Maximum Humidity 84    
Minimum Humidity 61    
Precipitation  
Precipitation T in 0.06 in 1.01 in (1965)
Month to date precipitation 0.19 0.84  
Year to date precipitation 38.16 34.60  
Sea Level Pressure  
Sea Level Pressure 30.31 in    
Wind  
Wind Speed 9 mph (West)    
Max Wind Speed 22 mph    
Max Gust Speed 25 mph    
Visibility 4 miles    
Events Fog , Snow    
T = Trace of Precipitation, MM = Missing Value Source: NWS Daily Summary

Daily Weather History Graph

Daily Weather History Graph

Search for Another Location

Airport or City:

Trip Planner

Search our weather history database for the weather conditions in past years. The results will help you decide how hot, cold, wet, or windy it might be!

Date:

Astronomy

Dec. 11, 2013 Rise Set
Actual Time 8:01 AM EST 5:10 PM EST
Civil Twilight 7:29 AM EST 5:41 PM EST
Nautical Twilight 6:54 AM EST 6:17 PM EST
Astronomical Twilight 6:20 AM EST 6:51 PM EST
Moon 1:48 PM EST (12/11) 2:16 AM EST (12/11)
Length of Visible Light 10h 12m
Length of Day
9h 09m
Waxing Gibbous, 71% of the Moon is Illuminated
Dec 11
Waxing Gibbous
Dec 17
Full
Dec 25
Last Quarter
Jan 1
New
Jan 7
First Quarter

Hourly Weather History & Observations

Time (EST) Temp. Windchill Dew Point Humidity Pressure Visibility Wind Dir Wind Speed Gust Speed Precip Events Conditions
12:05 AM 19.4 °F 6.6 °F 10.4 °F 68% 30.21 in 10.0 mi West 12.7 mph - N/A   Overcast
12:37 AM 19.4 °F 7.9 °F 10.4 °F 68% 30.21 in 10.0 mi WSW 10.4 mph - N/A   Overcast
12:44 AM 19.4 °F 9.5 °F 10.4 °F 68% 30.21 in 10.0 mi WSW 8.1 mph - N/A   Overcast
12:53 AM 19.9 °F 7.9 °F 10.9 °F 68% 30.25 in 10.0 mi WSW 11.5 mph - N/A   Overcast
1:07 AM 19.4 °F 7.9 °F 12.2 °F 74% 30.21 in 10.0 mi WSW 10.4 mph - N/A   Overcast
1:14 AM 19.4 °F 7.2 °F 12.2 °F 74% 30.21 in 8.0 mi WSW 11.5 mph - 0.00 in Snow Light Snow
1:53 AM 19.0 °F 7.5 °F 12.9 °F 77% 30.27 in 7.0 mi WSW 10.4 mph - 0.00 in   Overcast
2:10 AM 19.4 °F 7.9 °F 12.2 °F 74% 30.22 in 8.0 mi WSW 10.4 mph - N/A   Overcast
2:40 AM 19.4 °F 7.2 °F 12.2 °F 74% 30.22 in 7.0 mi WSW 11.5 mph - N/A   Overcast
2:53 AM 19.0 °F 7.5 °F 12.9 °F 77% 30.27 in 8.0 mi WSW 10.4 mph - N/A   Overcast
3:39 AM 19.4 °F 8.6 °F 12.2 °F 74% 30.23 in 5.0 mi SW 9.2 mph - 0.00 in Snow Light Snow
3:49 AM 19.4 °F 8.6 °F 12.2 °F 74% 30.23 in 3.0 mi SW 9.2 mph - 0.00 in Snow Light Snow
3:53 AM 18.0 °F 6.9 °F 12.9 °F 81% 30.29 in 3.0 mi SW 9.2 mph - 0.00 in Snow Light Snow
4:53 AM 17.1 °F 6.6 °F 12.9 °F 84% 30.27 in 2.0 mi SSW 8.1 mph - 0.00 in Snow Light Snow
5:06 AM 17.6 °F 8.2 °F 12.2 °F 79% 30.22 in 3.0 mi SSW 6.9 mph - 0.00 in Snow Light Snow
5:19 AM 17.6 °F 7.3 °F 12.2 °F 79% 30.22 in 2.5 mi SSW 8.1 mph - 0.00 in Snow Light Snow
5:27 AM 17.6 °F 6.4 °F 12.2 °F 79% 30.22 in 3.0 mi SSW 9.2 mph - 0.00 in Snow Light Snow
5:51 AM 17.6 °F 6.4 °F 12.2 °F 79% 30.22 in 2.5 mi SW 9.2 mph - 0.00 in Snow Light Snow
5:53 AM 17.1 °F 6.6 °F 12.9 °F 84% 30.27 in 1.5 mi SW 8.1 mph - 0.00 in Snow Light Snow
6:53 AM 18.0 °F 7.7 °F 12.9 °F 81% 30.28 in 1.5 mi SW 8.1 mph - 0.00 in Snow Light Snow
7:18 AM 17.6 °F 7.3 °F 12.2 °F 79% 30.24 in 1.5 mi SW 8.1 mph - 0.00 in Snow Light Snow
7:53 AM 18.0 °F 8.7 °F 12.9 °F 81% 30.31 in 1.0 mi WSW 6.9 mph - 0.00 in Snow Light Snow
8:53 AM 18.0 °F 8.7 °F 14.0 °F 84% 30.32 in 1.0 mi SW 6.9 mph - 0.00 in Snow Light Snow
9:01 AM 17.6 °F 7.3 °F 15.8 °F 93% 30.27 in 0.8 mi SW 8.1 mph - 0.00 in Snow Light Snow
9:09 AM 19.4 °F 10.4 °F 15.8 °F 86% 30.28 in 0.8 mi SW 6.9 mph - 0.00 in Snow Light Snow
9:26 AM 19.4 °F 9.5 °F 15.8 °F 86% 30.28 in 1.0 mi SW 8.1 mph - 0.00 in Snow Light Snow
9:30 AM 19.4 °F 10.4 °F 15.8 °F 86% 30.28 in 1.0 mi SW 6.9 mph - 0.00 in Snow Light Snow
9:53 AM 19.0 °F 9.0 °F 15.1 °F 85% 30.33 in 0.8 mi SW 8.1 mph - 0.00 in Snow Light Snow
10:03 AM 19.4 °F 9.5 °F 15.8 °F 86% 30.29 in 0.8 mi SW 8.1 mph - 0.00 in Snow Light Snow
10:53 AM 19.9 °F 11.1 °F 15.1 °F 81% 30.34 in 0.8 mi WSW 6.9 mph - 0.00 in Snow Light Snow
11:27 AM 19.4 °F 10.4 °F 15.8 °F 86% 30.29 in 0.8 mi WSW 6.9 mph - 0.00 in Snow Light Snow
11:53 AM 21.0 °F 11.4 °F 17.1 °F 85% 30.33 in 0.5 mi West 8.1 mph - 0.00 in Fog , Snow Snow
12:17 PM 19.4 °F 6.0 °F 15.8 °F 86% 30.28 in 0.5 mi North 13.8 mph - 0.00 in Snow Snow
12:53 PM 21.0 °F 9.9 °F 15.1 °F 78% 30.32 in 0.5 mi NNW 10.4 mph - 0.00 in Snow Snow
1:00 PM 21.2 °F 8.9 °F 15.8 °F 80% 30.27 in 1.2 mi NW 12.7 mph - 0.00 in Snow Light Snow
1:53 PM 19.9 °F 5.2 °F 12.0 °F 71% 30.33 in 3.0 mi NW 17.3 mph - 0.00 in Snow Light Snow
2:28 PM 19.4 °F 5.0 °F 12.2 °F 74% 30.29 in 1.0 mi WNW 16.1 mph - 0.00 in Snow Light Snow
2:38 PM 19.4 °F 3.2 °F 12.2 °F 74% 30.29 in 1.0 mi NW 20.7 mph - 0.00 in Snow Light Snow
2:53 PM 19.0 °F 5.6 °F 12.0 °F 74% 30.35 in 1.5 mi NW 13.8 mph 24.2 mph 0.00 in Snow Light Snow
3:34 PM 17.6 °F 4.3 °F 8.6 °F 68% 30.31 in 9.0 mi WNW 12.7 mph - 0.00 in   Mostly Cloudy
3:48 PM 17.6 °F 2.7 °F 6.8 °F 63% 30.32 in 10.0 mi NW 16.1 mph 23.0 mph 0.00 in   Mostly Cloudy
3:53 PM 18.0 °F 3.6 °F 7.0 °F 62% 30.37 in 10.0 mi NW 15.0 mph 23.0 mph 0.00 in   Partly Cloudy
4:22 PM 17.6 °F 2.7 °F 8.6 °F 68% 30.33 in 1.0 mi NW 16.1 mph - 0.00 in Snow Light Snow
4:53 PM 16.0 °F 1.7 °F 10.0 °F 77% 30.40 in 2.0 mi NW 13.8 mph - 0.00 in Snow Light Snow
5:53 PM 14.0 °F -0.8 °F 8.1 °F 77% 30.43 in 2.0 mi WNW 13.8 mph - 0.00 in   Haze
6:00 PM 14.0 °F 1.2 °F 8.6 °F 79% 30.38 in 2.0 mi NW 10.4 mph - N/A   Haze
6:53 PM 14.0 °F 3.9 °F 8.1 °F 77% 30.45 in 8.0 mi WNW 6.9 mph - 0.00 in Snow Light Snow
7:53 PM 14.0 °F 2.0 °F 6.1 °F 71% 30.47 in 4.0 mi WNW 9.2 mph - 0.00 in Snow Light Snow
8:53 PM 14.0 °F 3.9 °F 8.1 °F 77% 30.48 in 3.0 mi West 6.9 mph - 0.00 in Snow Light Snow
9:22 PM 14.0 °F 3.9 °F 8.6 °F 79% 30.43 in 1.5 mi West 6.9 mph - 0.00 in Snow Light Snow
9:53 PM 14.0 °F 6.5 °F 9.0 °F 80% 30.48 in 1.5 mi West 4.6 mph - 0.00 in Snow Light Snow
10:37 PM 14.0 °F 3.9 °F 8.6 °F 79% 30.44 in 1.5 mi West 6.9 mph - 0.00 in Snow Light Snow
10:53 PM 14.0 °F 2.9 °F 8.1 °F 77% 30.49 in 1.5 mi West 8.1 mph - 0.00 in Snow Light Snow
11:00 PM 14.0 °F 5.1 °F 8.6 °F 79% 30.43 in 6.0 mi West 5.8 mph - 0.00 in Snow Light Snow
11:53 PM 12.9 °F 2.6 °F 7.0 °F 77% 30.47 in 9.0 mi WNW 6.9 mph - 0.00 in Snow Light Snow